Location: Navalmoral
(40.4603°N, 4.7686°W)
Time: 06:46:20
(UTC+00:00)

Cosmos 2056 Rocket - Pass Details

Date: 05 August 2024
Orbit: 740 x 797 km, 74.0° (Epoch: 12 September)

Event Time Altitude Azimuth Distance (km) Brightness Sun altitude
Rises 20:20:28 0° 185° (S) 3,220 6.5 -9.5°
Reaches altitude 10° 20:22:53 10° 180° (S) 2,289 5.7 -9.9°
Maximum altitude 20:27:55 53° 104° (ESE) 919 3.6 -10.7°
Drops below altitude 10° 20:32:54 10° 29° (NNE) 2,272 6.0 -11.5°
Sets 20:35:18 0° 25° (NNE) 3,194 6.8 -11.9°
